Wind_Speed
10 9 9 9 10 10 10 10 11 10 10 10 9 9 8 8 7 8 8 8 8 8 9 10 10 10 10 9 8 8 8 8 8 8 9 9 9 11 11 10 10 10 10
10 9 9 9 10 11 11 12 12 11 10 10 10 9 8 8 8 8 9 9 9 9 10 11 12 12 10 10 9 9 9 9 9 9 10 10 10 11 11 11 11 12 12
11 11 11 11 11 11 12 12 13 12 11 11 11 10 10 9 9 9 9 9 9 9 10 12 12 11 10 10 10 10 10 10 10 11 11 11 11 11 13 13 13 13 13
12 12 12 12 13 13 13 13 13 13 13 12 12 11 11 10 10 10 11 11 11 11 11 12 13 12 12 11 11 12 11 10 11 12 13 14 14 14 14 14 14 14 14
12 12 12 13 13 13 14 13 13 14 14 13 13 11 11 11 11 11 12 12 12 13 12 12 12 13 12 12 12 13 13 13 13 13 14 16 16 16 16 16 16 15 15
12 12 12 13 13 14 14 14 14 15 15 15 14 13 13 13 13 13 13 13 13 14 14 14 14 14 14 14 14 14 14 14 14 15 15 16 17 17 17 18 18 17 17
14 14 13 14 14 14 14 15 15 15 15 15 14 14 13 13 14 14 14 15 15 15 15 16 16 15 15 15 16 16 16 16 16 16 16 17 18 17 18 18 19 18 19
16 15 15 15 14 14 14 15 15 16 16 15 15 14 14 15 15 15 15 16 16 16 17 17 17 16 16 17 17 17 17 17 18 18 18 18 18 18 19 19 19 20 20
16 16 17 16 15 15 15 15 15 16 16 15 15 15 16 16 16 16 16 17 17 17 18 18 18 18 17 18 20 20 19 19 19 19 19 20 20 19 19 20 20 20 21
17 17 17 18 17 16 16 16 16 16 16 16 16 17 17 17 18 18 18 18 18 19 19 19 19 19 19 19 21 21 21 20 20 21 21 21 21 21 22 21 22 22 23
19 18 18 18 18 18 18 17 17 17 18 17 18 18 18 19 19 19 19 19 20 21 21 22 22 21 21 21 21 22 22 22 22 22 22 22 22 23 23 23 23 24 24
21 20 20 19 19 19 19 19 19 19 19 19 19 19 20 21 21 22 22 22 22 23 23 24 23 23 23 23 22 22 22 22 21 21 22 23 24 24 25 26 26 26 26
23 22 21 21 20 21 21 21 20 20 21 21 21 21 22 23 24 24 24 24 25 25 26 25 24 24 23 23 23 23 23 23 22 23 24 24 25 25 27 27 28 28 28
24 24 23 22 22 22 22 22 22 23 22 23 23 23 24 25 26 25 25 26 27 27 27 26 26 25 25 25 24 24 25 25 25 25 26 26 26 27 28 28 29 29 29
25 24 23 23 24 24 24 24 24 24 25 25 25 25 26 27 27 27 27 28 28 29 28 27 27 27 26 26 26 26 26 27 27 27 27 27 28 28 29 29 30 30 30
26 26 25 25 26 26 26 26 27 27 27 28 28 28 28 28 29 29 30 30 30 30 30 29 29 29 28 28 27 28 28 28 29 28 29 29 29 30 30 31 31 31 31
28 28 28 28 28 28 28 29 29 29 29 30 30 30 30 30 30 31 31 31 31 31 31 31 30 30 30 30 30 30 30 30 30 30 30 30 30 30 31 31 31 31 31
30 30 30 30 30 30 31 31 31 32 32 32 32 32 32 32 32 32 32 32 32 31 31 31 31 31 31 31 31 31 31 30 31 31 31 32 32 32 32 31 32 32 32
32 32 33 33 33 33 33 33 34 34 34 34 34 34 34 34 34 34 34 32 32 32 32 31 31 31 31 32 32 31 31 31 32 32 32 32 33 32 33 33 32 32 33
34 34 35 35 35 35 35 35 36 36 36 36 36 36 36 36 36 36 35 34 33 33 32 32 31 32 31 31 31 31 31 31 31 31 31 32 32 32 32 33 33 33 33
36 36 37 37 38 37 37 37 37 38 37 37 37 38 37 36 36 36 35 34 34 33 32 32 32 32 31 31 32 31 31 32 32 32 32 32 32 32 32 32 32 32 32
36 37 37 37 38 38 38 37 37 38 37 38 38 38 37 37 37 36 36 35 35 34 34 33 33 32 32 32 31 31 32 32 32 32 32 32 32 32 31 30 30 30 30
37 37 38 38 38 38 37 36 35 36 37 38 38 38 39 38 37 36 36 36 36 35 34 34 34 33 33 33 32 32 32 32 32 32 32 32 32 32 31 31 31 31 31
36 36 37 38 39 39 38 37 36 36 37 37 37 37 37 37 37 36 36 36 36 36 35 34 33 33 34 34 33 33 33 32 33 33 33 33 33 32 32 32 32 32 31
36 36 37 38 39 38 38 37 37 36 37 37 37 37 37 37 36 36 36 35 35 35 35 35 34 34 34 35 35 34 34 34 34 34 34 33 33 32 32 32 32 31 31
38 38 37 37 37 38 37 38 38 38 38 38 38 38 38 37 36 36 36 36 36 36 36 36 36 35 35 35 35 35 35 35 34 34 34 33 33 32 32 32 32 32 31
Wind_Direction
338 340 339 342 345 345 344 340 336 332 332 335 337 337 339 338 334 327 323 320 321 319 318 315 311 308 305 304 304 296 292 288 285 284 283 282 281 282 284 284 281 278 278
334 335 334 336 341 344 345 342 342 337 333 331 330 332 335 334 333 335 333 330 331 328 325 325 320 313 309 305 302 293 288 287 289 290 284 278 279 281 283 283 282 281 281
333 333 329 330 334 337 339 338 337 337 334 334 333 333 333 331 333 334 335 330 327 324 323 325 324 316 308 307 304 300 292 288 289 293 289 283 285 283 284 283 282 282 284
333 333 327 325 329 333 334 335 336 336 334 333 331 333 334 333 330 330 331 329 326 323 322 324 323 317 313 309 303 300 295 291 292 291 291 289 289 288 287 281 279 279 282
325 324 326 326 328 331 333 332 331 331 330 328 327 327 326 327 327 328 330 329 329 327 322 319 319 319 316 311 306 304 300 293 292 290 288 288 289 289 288 285 281 279 279
313 315 318 321 324 326 329 330 327 325 325 323 321 320 320 321 322 323 325 326 326 326 322 320 319 315 310 308 308 305 302 297 294 291 287 286 288 290 288 285 282 280 280
306 308 309 312 317 321 324 324 322 320 321 319 319 318 316 317 319 318 318 320 321 321 321 318 317 312 307 304 306 304 301 298 294 293 289 287 286 289 289 289 286 283 282
299 301 303 306 309 313 317 318 318 318 318 314 312 315 315 313 314 315 315 316 316 316 318 318 315 312 307 302 301 303 300 296 292 290 290 288 286 288 290 290 288 285 284
293 296 301 302 304 306 309 311 314 317 317 313 308 309 310 312 311 312 312 313 313 314 316 316 313 311 307 302 298 297 298 296 292 289 288 288 288 287 289 290 289 289 287
292 294 296 298 299 301 303 306 310 313 314 312 309 309 308 309 308 309 310 310 312 315 315 313 313 309 306 303 300 298 296 294 292 289 288 287 288 288 289 291 292 291 290
291 293 293 295 295 296 298 302 306 307 307 307 308 308 306 308 308 307 308 308 309 310 310 309 308 306 304 304 303 301 298 298 294 292 290 289 288 288 289 290 291 292 292
287 290 290 290 292 293 295 298 301 303 303 304 304 304 304 305 305 304 304 305 306 306 306 306 306 304 303 303 303 302 301 299 296 294 292 290 287 287 287 287 288 289 289
285 287 288 289 290 290 291 295 298 300 300 301 301 301 301 302 302 303 301 303 304 303 303 304 302 301 300 299 298 297 298 297 295 293 292 291 288 285 286 287 287 287 288
282 285 286 286 287 288 289 291 293 295 296 297 297 298 299 300 299 301 301 301 302 303 302 301 298 298 297 297 297 297 295 293 292 292 291 290 288 286 287 287 287 287 287
280 282 283 283 284 285 286 288 289 291 293 295 296 297 297 298 297 298 299 301 300 301 300 299 297 296 296 296 296 295 294 292 291 291 290 290 289 289 289 290 288 287 287
278 279 280 280 281 282 283 284 286 288 291 293 293 294 295 296 296 297 298 301 300 300 299 297 297 296 295 295 294 294 293 292 292 292 291 290 291 290 289 289 287 286 286
275 277 278 279 279 280 281 283 285 287 288 289 291 290 292 294 294 296 297 299 299 298 297 297 296 295 294 294 294 294 293 293 293 292 291 291 291 291 290 288 287 287 288
275 276 277 279 279 279 279 282 283 285 286 287 289 289 290 291 292 293 294 295 297 297 296 296 295 294 293 294 294 294 294 292 292 292 292 292 291 290 289 288 287 287 287
275 276 276 277 279 280 280 282 283 284 284 284 286 287 288 289 290 291 291 292 294 295 295 294 294 293 293 294 294 293 293 293 292 292 293 293 293 292 290 289 289 287 286
274 275 276 277 278 279 280 281 282 283 284 284 285 286 286 286 288 288 289 290 291 292 292 293 293 293 293 294 293 293 292 292 292 292 292 292 293 292 291 289 289 288 287
274 275 275 276 277 278 280 281 282 282 283 282 283 285 285 285 286 287 288 289 289 290 291 292 293 293 294 293 292 292 292 291 291 292 292 291 292 292 292 291 290 289 288
274 275 275 276 276 277 278 279 280 281 282 283 283 283 284 286 285 287 287 288 289 291 291 292 292 292 292 292 292 292 291 292 292 292 291 291 292 292 292 292 291 291 290
275 275 275 275 275 276 277 278 278 279 281 283 284 285 286 287 287 287 287 288 289 290 291 290 289 290 290 291 292 292 292 293 293 292 291 291 292 292 291 291 290 290 291
276 275 275 276 276 276 277 278 279 280 282 283 284 286 287 287 286 287 287 288 288 288 288 289 289 288 289 289 290 290 291 292 292 292 291 290 291 291 291 290 290 290 290
275 276 276 277 277 276 277 278 279 279 280 281 284 285 287 288 287 286 287 287 288 287 287 288 289 289 290 288 288 288 289 290 291 291 291 290 290 289 289 290 289 289 289
275 277 278 278 279 279 278 278 279 279 279 281 283 284 285 286 286 284 284 285 286 286 284 285 286 286 288 289 290 290 289 288 288 289 289 289 289 289 288 288 287 287 289
Height
5912 5911 5910 5909 5908 5907 5906 5904 5903 5902 5901 5900 5899 5898 5897 5896 5895 5894 5893 5891 5890 5890 5889 5888 5888 5887 5886 5886 5885 5885 5886 5886 5886 5886 5886 5886 5885 5886 5886 5886 5886 5886 5886
5912 5911 5910 5909 5908 5907 5906 5904 5903 5901 5900 5899 5898 5897 5897 5895 5894 5893 5892 5891 5890 5889 5888 5887 5886 5884 5884 5883 5883 5883 5884 5884 5884 5884 5884 5884 5884 5883 5883 5883 5883 5883 5883
5911 5911 5910 5909 5908 5907 5905 5904 5902 5901 5900 5899 5897 5897 5896 5895 5894 5893 5892 5891 5889 5888 5887 5885 5884 5883 5882 5881 5881 5881 5881 5881 5881 5881 5881 5881 5880 5881 5881 5881 5881 5880 5880
5911 5910 5909 5908 5907 5906 5905 5903 5902 5900 5899 5898 5897 5896 5895 5894 5893 5892 5891 5890 5888 5887 5886 5884 5883 5881 5880 5880 5879 5879 5878 5879 5879 5878 5878 5878 5878 5878 5878 5877 5877 5877 5876
5911 5909 5908 5907 5906 5905 5904 5902 5901 5900 5899 5897 5896 5895 5894 5893 5892 5891 5890 5888 5887 5886 5884 5883 5881 5880 5878 5877 5877 5876 5876 5876 5876 5875 5875 5875 5875 5874 5874 5873 5873 5873 5873
5909 5907 5906 5906 5905 5904 5902 5901 5900 5899 5897 5896 5895 5894 5893 5892 5891 5890 5889 5887 5886 5884 5883 5881 5880 5878 5877 5876 5875 5874 5873 5873 5872 5872 5871 5871 5871 5871 5870 5870 5869 5869 5869
5908 5906 5905 5904 5903 5902 5901 5900 5898 5897 5895 5894 5893 5892 5891 5890 5889 5888 5887 5885 5884 5882 5881 5879 5877 5876 5874 5873 5872 5871 5870 5869 5869 5868 5867 5867 5867 5866 5866 5865 5865 5865 5865
5906 5905 5903 5902 5901 5900 5899 5898 5896 5895 5893 5892 5891 5890 5889 5888 5887 5885 5884 5883 5881 5880 5878 5877 5875 5873 5871 5870 5869 5867 5866 5865 5865 5864 5863 5863 5862 5862 5861 5860 5860 5860 5859
5904 5902 5901 5900 5899 5898 5897 5896 5894 5893 5891 5890 5888 5887 5886 5885 5884 5882 5881 5880 5878 5877 5875 5874 5872 5870 5868 5866 5865 5863 5862 5861 5860 5859 5859 5858 5857 5857 5856 5855 5854 5854 5853
5901 5900 5899 5897 5896 5896 5894 5893 5892 5890 5889 5887 5886 5885 5884 5883 5881 5880 5878 5877 5875 5873 5872 5870 5868 5866 5864 5862 5860 5859 5857 5856 5855 5854 5854 5853 5852 5851 5851 5850 5849 5848 5847
5898 5897 5895 5894 5893 5892 5891 5890 5889 5888 5886 5885 5884 5882 5881 5879 5878 5876 5875 5873 5871 5869 5867 5866 5864 5862 5860 5858 5856 5854 5852 5851 5849 5849 5848 5847 5846 5846 5845 5844 5843 5842 5840
5894 5893 5892 5891 5890 5889 5888 5886 5886 5884 5883 5882 5880 5878 5877 5875 5874 5872 5870 5869 5867 5865 5863 5861 5859 5857 5855 5853 5851 5849 5847 5846 5845 5843 5842 5841 5840 5839 5838 5837 5836 5835 5833
5889 5888 5888 5887 5886 5885 5884 5882 5881 5880 5879 5878 5876 5874 5872 5871 5869 5867 5865 5863 5862 5860 5858 5855 5854 5852 5850 5848 5846 5844 5842 5841 5839 5838 5836 5835 5833 5832 5831 5830 5828 5827 5826
5883 5883 5882 5882 5881 5880 5879 5878 5877 5875 5874 5873 5871 5869 5867 5866 5864 5862 5859 5858 5856 5854 5852 5850 5848 5846 5844 5842 5840 5838 5836 5835 5833 5832 5830 5828 5826 5825 5823 5822 5820 5819 5818
5877 5877 5877 5876 5876 5875 5874 5873 5872 5870 5869 5867 5866 5864 5862 5860 5858 5855 5854 5851 5849 5847 5845 5843 5842 5840 5838 5836 5834 5832 5830 5828 5826 5824 5823 5821 5819 5817 5816 5814 5813 5811 5810
5871 5871 5871 5870 5870 5869 5868 5867 5866 5864 5863 5861 5859 5857 5855 5853 5851 5849 5847 5844 5842 5840 5838 5837 5835 5832 5830 5828 5826 5825 5823 5821 5819 5817 5815 5814 5812 5810 5808 5806 5804 5802 5801
5864 5864 5863 5863 5863 5862 5861 5860 5859 5857 5856 5854 5853 5850 5848 5846 5844 5842 5840 5837 5835 5833 5831 5829 5827 5825 5823 5821 5819 5817 5815 5813 5811 5809 5808 5806 5804 5801 5800 5797 5796 5794 5792
5857 5856 5855 5855 5855 5854 5853 5852 5851 5850 5848 5847 5845 5843 5841 5838 5836 5834 5832 5829 5827 5825 5823 5821 5819 5817 5815 5813 5810 5808 5806 5804 5803 5801 5799 5797 5795 5793 5791 5789 5787 5785 5784
5848 5848 5847 5847 5846 5845 5844 5844 5843 5841 5840 5838 5837 5834 5832 5830 5828 5826 5823 5821 5819 5817 5815 5813 5811 5809 5807 5804 5802 5800 5798 5796 5794 5793 5790 5788 5786 5784 5782 5780 5778 5777 5775
5839 5839 5838 5837 5837 5836 5835 5834 5833 5832 5830 5829 5827 5825 5823 5821 5819 5816 5814 5812 5810 5808 5806 5805 5803 5800 5798 5796 5794 5792 5790 5788 5786 5784 5782 5779 5777 5775 5773 5771 5769 5767 5765
5828 5829 5828 5828 5827 5827 5826 5825 5823 5822 5820 5819 5817 5816 5814 5812 5810 5807 5805 5803 5801 5800 5798 5796 5794 5792 5790 5788 5786 5784 5782 5780 5778 5776 5774 5771 5769 5766 5764 5762 5760 5758 5756
5818 5818 5818 5818 5817 5816 5815 5814 5813 5811 5809 5808 5807 5805 5804 5802 5800 5798 5796 5794 5792 5790 5789 5787 5785 5783 5781 5779 5777 5775 5773 5771 5769 5767 5765 5762 5760 5758 5756 5753 5751 5749 5747
5808 5808 5807 5807 5807 5806 5805 5804 5802 5801 5799 5798 5797 5795 5793 5791 5789 5788 5786 5784 5783 5781 5780 5778 5776 5774 5772 5770 5769 5767 5764 5762 5760 5758 5756 5754 5751 5749 5747 5745 5743 5740 5738
5798 5797 5797 5796 5795 5795 5794 5793 5792 5791 5790 5788 5786 5784 5782 5780 5779 5777 5776 5774 5773 5771 5770 5768 5767 5765 5763 5761 5759 5757 5755 5753 5751 5749 5747 5745 5743 5741 5738 5736 5734 5732 5729
5788 5787 5786 5785 5784 5783 5783 5782 5781 5781 5779 5778 5776 5774 5772 5770 5768 5767 5765 5764 5763 5762 5760 5759 5757 5756 5754 5752 5750 5748 5746 5744 5742 5740 5738 5736 5734 5732 5729 5727 5725 5723 5721
5778 5776 5775 5774 5773 5772 5771 5771 5770 5769 5768 5767 5766 5764 5762 5760 5758 5756 5756 5755 5754 5752 5750 5748 5747 5745 5744 5741 5740 5738 5736 5734 5732 5730 5728 5726 5724 5722 5720 5718 5716 5714 5712